Location: Newark
(41.0000°N, 28.9500°W)
Time: 09:50:41
(UTC+00:00)

N. Korean satellite - Pass Details

Date: 04 February 2020
Orbit: 456 x 505 km, 97.2° (Epoch: 22 February)

Event Time Altitude Azimuth Distance (km) Brightness Sun altitude
Rises 07:43:12 0° 12° (NNE) 2,578 10.3 -15.5°
Reaches altitude 10° 07:45:17 10° 12° (NNE) 1,699 9.4 -15.2°
Maximum altitude 07:48:57 88° 99° (E) 505 6.6 -14.5°
Drops below altitude 10° 07:52:37 10° 192° (SSW) 1,704 9.3 -13.8°
Sets 07:54:42 0° 193° (SSW) 2,587 10.2 -13.4°
